{"data":{"norad_id":43807,"epoch":"2026-05-25T03:55:05.757312Z","epoch_age_seconds":58007,"freshness":"FRESH","line1":"1 43807U 18099BB  26145.16326108  .00008266  00000+0  38458-3 0  9996","line2":"2 43807  97.4236 201.2857 0005919  36.9341 323.2300 15.20184626408965","mean_motion":15.20184626,"eccentricity":0.0005919,"inclination_deg":97.4236,"raan_deg":201.2857,"arg_perigee_deg":36.9341,"mean_anomaly_deg":323.23,"bstar":0.00038458,"rev_number":40896,"period_min":94.72533634214,"perigee_km":501.20893458025,"apogee_km":509.35752744973,"semimajor_km":6883.420231015,"source":"CELESTRAK","updated_at":"2026-05-25T13:37:55.900205Z"}}